Date String (YYYY-MM-DD hh:mm:ss) UTC,Instrument flags,Ambient pressure (hPa),Sample flow (lpm),Bypass flow (lpm),Sample temperature (°C),Ambient temperature (°C),ASC tube jacket temperature (°C),LED temperature (°C),Box temperature (°C),Sample RH (%),Span deviation,Mass concentration (μg/m³),Mass concentration (μg/m³),Mass concentration (μg/m³)
DateTimeUTC,F1_M11,P_M11,Q1_M11,Q2_M11,T1_M11,T2_M11,T3_M11,T4_M11,T5_M11,U1_M11,ZSPAN_M11,X0_M11,X2_M11,X1_M11
2022-06-25 10:00:00,,0829.0,4.99,0.00,30.1,29.1,00.0,38.9,32.0,16.9,0000.0,0005.22,0002.68,0001.69
2022-06-25 10:01:00,,0829.1,5.01,0.00,30.1,29.1,00.0,38.9,32.0,16.9,0000.0,0005.48,0002.76,0001.71
2022-06-25 10:02:00,,0829.1,5.01,0.00,30.1,29.1,00.0,38.9,32.0,17.0,0000.0,0006.15,0002.83,0001.71
2022-06-25 10:03:00,,0829.0,5.00,0.00,30.1,29.1,00.0,38.9,32.0,16.9,0000.0,0006.28,0002.89,0001.71
2022-06-25 10:04:00,,0829.0,4.98,0.00,30.1,29.2,00.0,38.9,32.0,16.7,0000.0,0007.34,0002.98,0001.71
2022-06-25 10:05:00,,0828.8,5.01,0.00,30.1,29.2,00.0,38.9,32.0,16.6,0000.0,0007.84,0003.00,0001.73
2022-06-25 10:06:00,,0829.1,5.01,0.00,30.2,29.2,00.0,38.9,32.0,16.7,0000.0,0007.82,0003.01,0001.75
2022-06-25 10:07:00,,0828.8,4.99,0.00,30.2,29.2,00.0,39.0,32.0,16.7,0000.0,0008.73,0003.07,0001.76
2022-06-25 10:08:00,,0828.8,5.00,0.00,30.2,29.2,00.0,39.0,32.0,16.8,0000.0,0009.60,0003.12,0001.76
2022-06-25 10:09:00,,0829.0,5.01,0.00,30.2,29.2,00.0,39.0,32.1,16.9,0000.0,0009.85,0003.17,0001.77
2022-06-25 10:10:00,,0829.0,5.00,0.00,30.2,29.2,00.0,39.0,32.1,16.9,0000.0,0009.91,0003.19,0001.77
2022-06-25 10:11:00,,0828.9,5.00,0.00,30.2,29.3,00.0,39.0,32.1,16.8,0000.0,0009.93,0003.21,0001.79
2022-06-25 10:12:00,,0829.1,4.99,0.00,30.2,29.3,00.0,39.0,32.1,16.9,0000.0,0009.76,0003.15,0001.77
2022-06-25 10:13:00,,0829.3,5.00,0.00,30.3,29.3,00.0,39.0,32.1,17.0,0000.0,0009.35,0003.13,0001.78
2022-06-25 10:14:00,,0829.5,5.01,0.00,30.3,29.3,00.0,39.0,32.1,17.2,0000.0,0009.28,0003.10,0001.78
2022-06-25 10:15:00,,0829.5,5.00,0.00,30.3,29.3,00.0,39.1,32.1,17.7,0000.0,0008.57,0002.99,0001.78
2022-06-25 10:16:00,,0829.6,4.99,0.00,30.3,29.3,00.0,39.1,32.1,18.0,0000.0,0008.34,0003.01,0001.77
2022-06-25 10:17:00,,0829.6,5.01,0.00,30.3,29.3,00.0,39.1,32.2,18.7,0000.0,0008.29,0002.98,0001.78
2022-06-25 10:18:00,,0829.7,4.99,0.00,30.3,29.3,00.0,39.1,32.2,19.6,0000.0,0007.29,0002.96,0001.79
2022-06-25 10:19:00,,0829.8,5.01,0.00,30.3,29.4,00.0,39.1,32.2,20.0,0000.0,0006.09,0003.02,0001.85
2022-06-25 10:20:00,,0829.8,5.00,0.00,30.3,29.4,00.0,39.1,32.2,20.3,0000.0,0005.88,0002.97,0001.90
2022-06-25 10:21:00,,0829.9,5.00,0.00,30.4,29.4,00.0,39.1,32.2,20.6,0000.0,0006.94,0003.03,0001.96
2022-06-25 10:22:00,,0829.9,5.00,0.00,30.4,29.4,00.0,39.1,32.2,20.9,0000.0,0006.91,0003.03,0002.02
2022-06-25 10:23:00,,0830.0,5.00,0.00,30.4,29.4,00.0,39.1,32.2,21.3,0000.0,0007.05,0003.13,0002.11
2022-06-25 10:24:00,,0830.0,4.99,0.00,30.4,29.4,00.0,39.2,32.2,22.0,0000.0,0007.60,0003.21,0002.22
2022-06-25 10:25:00,,0830.1,5.01,0.00,30.4,29.4,00.0,39.2,32.2,22.4,0000.0,0007.95,0003.30,0002.33
2022-06-25 10:26:00,,0830.1,5.00,0.00,30.4,29.4,00.0,39.2,32.2,22.8,0000.0,0009.11,0003.40,0002.44
2022-06-25 10:27:00,,0830.1,5.00,0.00,30.4,29.4,00.0,39.2,32.2,23.1,0000.0,0009.12,0003.44,0002.56
2022-06-25 10:28:00,,0830.2,5.02,0.00,30.4,29.4,00.0,39.2,32.2,23.2,0000.0,0010.15,0003.57,0002.66
2022-06-25 10:29:00,,0830.2,5.00,0.00,30.4,29.3,00.0,39.2,32.2,23.4,0000.0,0010.35,0003.67,0002.78
2022-06-25 10:30:00,,0830.3,4.98,0.00,30.4,29.4,00.0,39.2,32.2,23.5,0000.0,0010.47,0003.73,0002.86
2022-06-25 10:31:00,,0830.3,5.00,0.00,30.4,29.4,00.0,39.2,32.2,23.8,0000.0,0010.67,0003.85,0002.96
2022-06-25 10:32:00,,0830.3,5.00,0.00,30.4,29.4,00.0,39.2,32.2,24.0,0000.0,0010.80,0003.95,0003.04
2022-06-25 10:33:00,,0830.4,5.01,0.00,30.4,29.4,00.0,39.2,32.2,24.2,0000.0,0011.64,0004.07,0003.12
2022-06-25 10:34:00,,0830.4,4.99,0.00,30.4,29.4,00.0,39.2,32.2,24.4,0000.0,0012.20,0004.15,0003.18
2022-06-25 10:35:00,,0830.4,5.00,0.00,30.4,29.4,00.0,39.2,32.2,24.5,0000.0,0012.27,0004.20,0003.22
2022-06-25 10:36:00,,0830.5,5.01,0.00,30.4,29.4,00.0,39.2,32.2,24.7,0000.0,0012.33,0004.26,0003.26
2022-06-25 10:37:00,,0830.5,5.01,0.00,30.4,29.4,00.0,39.2,32.2,24.9,0000.0,0012.05,0004.36,0003.33
2022-06-25 10:38:00,,0830.6,5.00,0.00,30.4,29.4,00.0,39.2,32.3,25.1,0000.0,0012.47,0004.47,0003.38
2022-06-25 10:39:00,,0830.6,4.99,0.00,30.4,29.4,00.0,39.3,32.3,25.2,0000.0,0013.01,0004.56,0003.44
2022-06-25 10:40:00,,0830.6,5.01,0.00,30.4,29.4,00.0,39.3,32.3,25.3,0000.0,0013.69,0004.63,0003.49
2022-06-25 10:41:00,,0830.7,5.01,0.00,30.4,29.4,00.0,39.3,32.3,25.5,0000.0,0014.12,0004.72,0003.53
2022-06-25 10:42:00,,0830.7,5.00,0.00,30.4,29.4,00.0,39.3,32.3,25.6,0000.0,0014.01,0004.74,0003.57
2022-06-25 10:43:00,,0830.7,5.00,0.00,30.4,29.4,00.0,39.3,32.3,25.7,0000.0,0013.71,0004.79,0003.60
2022-06-25 10:44:00,,0830.8,4.99,0.00,30.4,29.4,00.0,39.3,32.3,25.8,0000.0,0013.43,0004.80,0003.62
2022-06-25 10:45:00,,0830.8,5.00,0.00,30.5,29.4,00.0,39.3,32.3,25.8,0000.0,0013.40,0004.84,0003.64
2022-06-25 10:46:00,,0830.9,5.00,0.00,30.5,29.4,00.0,39.3,32.3,25.9,0000.0,0013.41,0004.91,0003.65
2022-06-25 10:47:00,,0830.9,4.99,0.00,30.5,29.4,00.0,39.3,32.3,25.9,0000.0,0013.94,0004.91,0003.66
2022-06-25 10:48:00,,0830.9,5.00,0.00,30.5,29.4,00.0,39.3,32.3,26.1,0000.0,0013.62,0004.89,0003.66
2022-06-25 10:49:00,,0831.0,5.01,0.00,30.5,29.4,00.0,39.3,32.3,26.2,0000.0,0014.05,0004.88,0003.65
2022-06-25 10:50:00,,0831.0,5.00,0.00,30.5,29.4,00.0,39.3,32.3,26.1,0000.0,0013.91,0004.82,0003.65
2022-06-25 10:51:00,,0831.0,4.98,0.00,30.5,29.5,00.0,39.3,32.3,26.2,0000.0,0013.42,0004.83,0003.65
2022-06-25 10:52:00,,0831.1,4.98,0.00,30.5,29.5,00.0,39.3,32.3,26.3,0000.0,0013.35,0004.84,0003.66
2022-06-25 10:53:00,,0831.2,5.01,0.00,30.5,29.5,00.0,39.3,32.3,26.4,0000.0,0013.48,0004.87,0003.67
2022-06-25 10:54:00,,0831.2,5.00,0.00,30.5,29.5,00.0,39.3,32.3,26.5,0000.0,0013.42,0004.82,0003.68
2022-06-25 10:55:00,,0831.2,4.99,0.00,30.5,29.5,00.0,39.3,32.3,26.6,0000.0,0013.16,0004.81,0003.69
2022-06-25 10:56:00,,0831.2,4.99,0.00,30.5,29.5,00.0,39.3,32.3,26.9,0000.0,0012.73,0004.82,0003.71
2022-06-25 10:57:00,,0831.2,5.00,0.00,30.5,29.5,00.0,39.4,32.3,27.7,0000.0,0012.62,0004.86,0003.74
2022-06-25 10:58:00,,0831.3,5.01,0.00,30.5,29.5,00.0,39.4,32.3,27.5,0000.0,0012.09,0004.88,0003.78
2022-06-25 10:59:00,,0831.4,5.00,0.00,30.5,29.5,00.0,39.4,32.3,27.5,0000.0,0012.33,0004.93,0003.81
